| time (UTC) | temp F | wind direction | speed knots | gust knots | rain 1hr in | rain 24hr in | rain mn in | humidity % | barometer mb |
| 20260831073513 | 59 | 231 | 0.9 | 2.6 | 0.00 | 0.00 | 0.00 | 77 | 1002.1 |
| 20260831073032 | 59 | 246 | 0.0 | 1.7 | 0.00 | 0.00 | 0.00 | 77 | 1002.2 |
| 20260831072535 | 59 | 341 | 0.0 | 1.7 | 0.00 | 0.00 | 0.00 | 76 | 1002.2 |
| 20260831072042 | 60 | 342 | 0.0 | 0.9 | 0.00 | 0.00 | 0.00 | 76 | 1002.3 |
| 20260831071553 | 60 | 259 | 0.0 | 0.0 | 0.00 | 0.00 | 0.00 | 75 | 1002.4 |
| 20260831071101 | 60 | 259 | 0.0 | 0.0 | 0.00 | 0.00 | 0.00 | 75 | 1002.5 |
| 20260831070507 | 60 | 259 | 0.0 | 0.0 | 0.00 | 0.00 | 0.00 | 75 | 1002.5 |
| 20260831070049 | 60 | 259 | 0.0 | 2.6 | 0.00 | 0.00 | 0.00 | 75 | 1002.5 |
| 20260831065538 | 60 | 259 | 0.9 | 2.6 | 0.00 | 0.00 | 0.00 | 75 | 1002.6 |
| 20260831065044 | 60 | 297 | 0.9 | 2.6 | 0.00 | 0.00 | 0.00 | 75 | 1002.6 |
| 20260831064558 | 60 | 304 | 0.0 | 1.7 | 0.00 | 0.00 | 0.00 | 75 | 1002.7 |
| 20260831064059 | 60 | 307 | 0.0 | 2.6 | 0.00 | 0.00 | 0.00 | 75 | 1002.8 |
| 20260831063517 | 60 | 273 | 0.0 | 2.6 | 0.00 | 0.00 | 0.00 | 74 | 1002.7 |
| 20260831063041 | 60 | 280 | 0.9 | 5.2 | 0.00 | 0.00 | 0.00 | 75 | 1002.8 |
| 20260831062542 | 60 | 296 | 1.7 | 4.3 | 0.00 | 0.00 | 0.00 | 74 | 1002.9 |
| 20260831062043 | 61 | 318 | 1.7 | 3.5 | 0.00 | 0.00 | 0.00 | 74 | 1002.9 |
| 20260831061519 | 61 | 297 | 0.0 | 5.2 | 0.00 | 0.00 | 0.00 | 74 | 1003.0 |
| 20260831061026 | 61 | 297 | 1.7 | 5.2 | 0.00 | 0.00 | 0.00 | 74 | 1003.0 |
| 20260831060530 | 61 | 274 | 0.9 | 3.5 | 0.00 | 0.00 | 0.00 | 74 | 1003.0 |
| 20260831060044 | 61 | 54 | 0.9 | 7.0 | 0.00 | 0.00 | 0.00 | 73 | 1003.0 |
| 20260831055549 | 61 | 350 | 1.7 | 7.0 | 0.00 | 0.00 | 0.00 | 73 | 1003.1 |
| 20260831055049 | 61 | 254 | 0.0 | 5.2 | 0.00 | 0.00 | 0.00 | 73 | 1003.1 |
| 20260831054522 | 61 | 269 | 2.6 | 7.8 | 0.00 | 0.00 | 0.00 | 73 | 1003.2 |
| 20260831054026 | 61 | 277 | 0.0 | 7.8 | 0.00 | 0.00 | 0.00 | 73 | 1003.2 |
| 20260831053533 | 61 | 252 | 0.9 | 6.1 | 0.00 | 0.00 | 0.00 | 73 | 1003.3 |
| 20260831053102 | 61 | 5 | 0.0 | 6.1 | 0.00 | 0.00 | 0.00 | 72 | 1003.3 |
| 20260831052502 | 61 | 355 | 1.7 | 4.3 | 0.00 | 0.00 | 0.00 | 72 | 1003.4 |
| 20260831052017 | 61 | 281 | 0.9 | 4.3 | 0.00 | 0.00 | 0.00 | 72 | 1003.5 |
| 20260831051544 | 61 | 320 | 0.9 | 4.3 | 0.00 | 0.00 | 0.00 | 72 | 1003.6 |
| 20260831051053 | 61 | 311 | 0.9 | 4.3 | 0.00 | 0.00 | 0.00 | 71 | 1003.6 |
| 20260831050501 | 62 | 325 | 0.9 | 4.3 | 0.00 | 0.00 | 0.00 | 71 | 1003.6 |
| 20260831050055 | 62 | 305 | 0.9 | 4.3 | 0.00 | 0.00 | 0.00 | 71 | 1003.6 |
| 20260831045541 | 62 | 247 | 0.9 | 2.6 | 0.00 | 0.00 | 0.00 | 70 | 1003.6 |
| 20260831045049 | 62 | 246 | 0.9 | 4.3 | 0.00 | 0.00 | 0.00 | 70 | 1003.7 |
| 20260831044503 | 62 | 307 | 1.7 | 4.3 | 0.00 | 0.00 | 0.00 | 70 | 1003.7 |
| 20260831044010 | 62 | 301 | 1.7 | 3.5 | 0.00 | 0.00 | 0.00 | 69 | 1003.7 |
| 20260831043523 | 63 | 14 | 0.0 | 1.7 | 0.00 | 0.00 | 0.00 | 69 | 1003.7 |
| 20260831043052 | 63 | 284 | 0.0 | 1.7 | 0.00 | 0.00 | 0.00 | 69 | 1003.8 |
| 20260831042554 | 63 | 281 | 0.0 | 1.7 | 0.00 | 0.00 | 0.00 | 68 | 1003.8 |
| 20260831042043 | 63 | 281 | 0.9 | 3.5 | 0.00 | 0.00 | 0.00 | 67 | 1003.7 |
| 20260831041614 | 64 | 281 | 0.0 | 3.5 | 0.00 | 0.00 | 0.00 | 67 | 1003.7 |
| 20260831041010 | 64 | 10 | 0.0 | 2.6 | 0.00 | 0.00 | 0.00 | 66 | 1003.8 |
| 20260831040515 | 64 | 10 | 0.9 | 4.3 | 0.00 | 0.00 | 0.00 | 66 | 1003.7 |
| 20260831040051 | 64 | 344 | 0.9 | 4.3 | 0.00 | 0.00 | 0.00 | 66 | 1003.8 |
| 20260831035558 | 64 | 355 | 0.9 | 4.3 | 0.00 | 0.00 | 0.00 | 66 | 1003.7 |
| 20260831035005 | 65 | 338 | 0.9 | 4.3 | 0.00 | 0.00 | 0.00 | 65 | 1003.8 |
| 20260831034541 | 65 | 51 | 1.7 | 4.3 | 0.00 | 0.00 | 0.00 | 65 | 1003.8 |
| 20260831034047 | 65 | 19 | 0.0 | 5.2 | 0.00 | 0.00 | 0.00 | 65 | 1003.8 |
| 20260831033553 | 65 | 5 | 1.7 | 5.2 | 0.00 | 0.00 | 0.00 | 64 | 1003.7 |
| 20260831033031 | 65 | 12 | 1.7 | 6.1 | 0.00 | 0.00 | 0.00 | 64 | 1003.7 |
| 20260831032542 | 65 | 55 | 1.7 | 6.1 | 0.00 | 0.00 | 0.00 | 63 | 1003.7 |
| 20260831032047 | 66 | 122 | 0.9 | 5.2 | 0.00 | 0.00 | 0.00 | 63 | 1003.8 |
| 20260831031526 | 66 | 5 | 2.6 | 8.7 | 0.00 | 0.00 | 0.00 | 63 | 1003.7 |
| 20260831031030 | 66 | 313 | 3.5 | 8.7 | 0.00 | 0.00 | 0.00 | 62 | 1003.8 |
| 20260831030540 | 66 | 34 | 3.5 | 7.8 | 0.00 | 0.00 | 0.00 | 61 | 1003.7 |
| 20260831030003 | 66 | 227 | 2.6 | 7.0 | 0.00 | 0.00 | 0.00 | 61 | 1003.7 |
| 20260831025517 | 67 | 18 | 1.7 | 7.0 | 0.00 | 0.00 | 0.00 | 60 | 1003.7 |
| 20260831025023 | 67 | 21 | 1.7 | 5.2 | 0.00 | 0.00 | 0.00 | 59 | 1003.7 |
| 20260831024611 | 67 | 360 | 0.9 | 9.6 | 0.00 | 0.00 | 0.00 | 59 | 1003.8 |
| 20260831024100 | 67 | 42 | 1.7 | 9.6 | 0.00 | 0.00 | 0.00 | 59 | 1003.8 |
| 20260831023507 | 68 | 342 | 1.7 | 7.0 | 0.00 | 0.00 | 0.00 | 58 | 1003.8 |
| 20260831023031 | 68 | 25 | 2.6 | 7.0 | 0.00 | 0.00 | 0.00 | 58 | 1003.8 |
| 20260831022537 | 68 | 28 | 2.6 | 7.0 | 0.00 | 0.00 | 0.00 | 57 | 1003.8 |
| 20260831022045 | 68 | 61 | 2.6 | 11.3 | 0.00 | 0.00 | 0.00 | 58 | 1003.8 |
| 20260831021519 | 68 | 5 | 3.5 | 11.3 | 0.00 | 0.00 | 0.00 | 58 | 1003.8 |
| 20260831021029 | 68 | 346 | 4.3 | 9.6 | 0.00 | 0.00 | 0.00 | 58 | 1003.8 |
| 20260831020539 | 69 | 9 | 3.5 | 9.6 | 0.00 | 0.00 | 0.00 | 57 | 1003.8 |
| 20260831020003 | 69 | 329 | 4.3 | 10.4 | 0.00 | 0.00 | 0.00 | 58 | 1003.7 |
| 20260831015517 | 69 | 360 | 4.3 | 10.4 | 0.00 | 0.00 | 0.00 | 58 | 1003.8 |
| 20260831015022 | 69 | 328 | 5.2 | 10.4 | 0.00 | 0.00 | 0.00 | 58 | 1003.7 |
| 20260831014603 | 69 | 16 | 2.6 | 8.7 | 0.00 | 0.00 | 0.00 | 57 | 1003.7 |
| 20260831014002 | 69 | 20 | 2.6 | 8.7 | 0.00 | 0.00 | 0.00 | 58 | 1003.8 |
| 20260831013511 | 70 | 55 | 4.3 | 8.7 | 0.00 | 0.00 | 0.00 | 58 | 1003.8 |
| 20260831013047 | 70 | 351 | 4.3 | 8.7 | 0.00 | 0.00 | 0.00 | 56 | 1003.8 |
| 20260831012555 | 70 | 13 | 3.5 | 8.7 | 0.00 | 0.00 | 0.00 | 56 | 1003.8 |
| 20260831012103 | 71 | 360 | 3.5 | 8.7 | 0.00 | 0.00 | 0.00 | 55 | 1003.9 |
| 20260831011538 | 71 | 351 | 2.6 | 7.8 | 0.00 | 0.00 | 0.00 | 55 | 1003.9 |
| 20260831011043 | 71 | 77 | 3.5 | 8.7 | 0.00 | 0.00 | 0.00 | 55 | 1004.1 |
| 20260831010551 | 71 | 45 | 4.3 | 8.7 | 0.00 | 0.00 | 0.00 | 55 | 1004.0 |
| 20260831010035 | 71 | 5 | 2.6 | 7.8 | 0.00 | 0.00 | 0.00 | 55 | 1004.1 |
| 20260831005531 | 71 | 34 | 2.6 | 10.4 | 0.00 | 0.00 | 0.00 | 54 | 1004.2 |
| 20260831005041 | 72 | 26 | 3.5 | 10.4 | 0.00 | 0.00 | 0.00 | 54 | 1004.2 |
| 20260831004509 | 72 | 51 | 2.6 | 7.8 | 0.00 | 0.00 | 0.00 | 54 | 1004.2 |
| 20260831004023 | 72 | 45 | 1.7 | 8.7 | 0.00 | 0.00 | 0.00 | 53 | 1004.2 |
| 20260831003531 | 72 | 350 | 4.3 | 8.7 | 0.00 | 0.00 | 0.00 | 53 | 1004.2 |
| 20260831003106 | 72 | 360 | 3.5 | 7.8 | 0.00 | 0.00 | 0.00 | 53 | 1004.3 |
| 20260831002504 | 72 | 111 | 2.6 | 7.8 | 0.00 | 0.00 | 0.00 | 53 | 1004.4 |
| 20260831002018 | 72 | 39 | 0.9 | 8.7 | 0.00 | 0.00 | 0.00 | 54 | 1004.4 |
| 20260831001540 | 72 | 13 | 3.5 | 8.7 | 0.00 | 0.00 | 0.00 | 52 | 1004.4 |
| 20260831001041 | 73 | 78 | 1.7 | 10.4 | 0.00 | 0.00 | 0.00 | 52 | 1004.4 |
| 20260831000548 | 72 | 28 | 4.3 | 10.4 | 0.00 | 0.00 | 0.00 | 53 | 1004.6 |
| 20260831000025 | 73 | 159 | 1.7 | 8.7 | 0.00 | 0.00 | 0.00 | 52 | 1004.5 |
| 20260830235537 | 73 | 355 | 4.3 | 8.7 | 0.00 | 0.00 | 0.00 | 52 | 1004.6 |
| 20260830235053 | 72 | 86 | 3.5 | 8.7 | 0.00 | 0.00 | 0.00 | 52 | 1004.5 |
| 20260830234506 | 72 | 309 | 2.6 | 6.1 | 0.00 | 0.00 | 0.00 | 54 | 1004.6 |
| 20260830234018 | 73 | 32 | 0.9 | 7.8 | 0.00 | 0.00 | 0.00 | 52 | 1004.6 |
| 20260830233527 | 73 | 55 | 3.5 | 7.8 | 0.00 | 0.00 | 0.00 | 53 | 1004.8 |
| 20260830233058 | 73 | 59 | 3.5 | 7.0 | 0.00 | 0.00 | 0.00 | 53 | 1004.8 |
| 20260830232505 | 72 | 341 | 1.7 | 8.7 | 0.00 | 0.00 | 0.00 | 53 | 1004.9 |
| 20260830232023 | 73 | 87 | 2.6 | 8.7 | 0.00 | 0.00 | 0.00 | 51 | 1004.9 |
| 20260830231538 | 73 | 47 | 0.9 | 6.1 | 0.00 | 0.00 | 0.00 | 52 | 1005.0 |
| 20260830231048 | 73 | 25 | 1.7 | 8.7 | 0.00 | 0.00 | 0.00 | 51 | 1005.0 |
| 20260830230556 | 73 | 63 | 1.7 | 7.8 | 0.00 | 0.00 | 0.00 | 53 | 1005.1 |
| 20260830230037 | 72 | 347 | 3.5 | 9.6 | 0.00 | 0.00 | 0.00 | 51 | 1005.1 |
| 20260830225534 | 73 | 298 | 2.6 | 9.6 | 0.00 | 0.00 | 0.00 | 50 | 1005.3 |
| 20260830225046 | 72 | 29 | 0.9 | 7.0 | 0.00 | 0.00 | 0.00 | 50 | 1005.3 |
| 20260830224529 | 73 | 85 | 1.7 | 4.3 | 0.00 | 0.00 | 0.00 | 51 | 1005.6 |
| 20260830224025 | 72 | 274 | 1.7 | 4.3 | 0.00 | 0.00 | 0.00 | 52 | 1005.6 |
| 20260830223531 | 73 | 269 | 0.9 | 9.6 | 0.00 | 0.00 | 0.00 | 51 | 1005.7 |
| 20260830223059 | 73 | 261 | 4.3 | 9.6 | 0.00 | 0.00 | 0.00 | 52 | 1005.9 |
| 20260830222504 | 73 | 99 | 2.6 | 6.1 | 0.00 | 0.00 | 0.00 | 50 | 1005.9 |
| 20260830222016 | 73 | 71 | 1.7 | 6.1 | 0.00 | 0.00 | 0.00 | 50 | 1006.0 |
| 20260830221534 | 72 | 44 | 1.7 | 7.0 | 0.00 | 0.00 | 0.00 | 52 | 1006.0 |
| 20260830221040 | 72 | 280 | 2.6 | 7.8 | 0.00 | 0.00 | 0.00 | 52 | 1006.1 |
| 20260830220548 | 72 | 5 | 1.7 | 5.2 | 0.00 | 0.00 | 0.00 | 50 | 1006.2 |
| 20260830220025 | 72 | 273 | 0.9 | 7.0 | 0.00 | 0.00 | 0.00 | 52 | 1006.2 |
| 20260830215527 | 72 | 313 | 3.5 | 7.0 | 0.00 | 0.00 | 0.00 | 51 | 1006.3 |
| 20260830215038 | 72 | 68 | 2.6 | 6.1 | 0.00 | 0.00 | 0.00 | 52 | 1006.4 |
| 20260830214505 | 72 | 138 | 1.7 | 6.1 | 0.00 | 0.00 | 0.00 | 52 | 1006.3 |
| 20260830214023 | 72 | 70 | 2.6 | 5.2 | 0.00 | 0.00 | 0.00 | 50 | 1006.4 |
| 20260830213518 | 72 | 218 | 1.7 | 7.0 | 0.00 | 0.00 | 0.00 | 49 | 1006.5 |
| 20260830213102 | 73 | 74 | 3.5 | 7.0 | 0.00 | 0.00 | 0.00 | 49 | 1006.7 |
| 20260830212600 | 72 | 70 | 1.7 | 7.0 | 0.00 | 0.00 | 0.00 | 52 | 1006.7 |
| 20260830212107 | 72 | 355 | 2.6 | 6.1 | 0.00 | 0.00 | 0.00 | 51 | 1006.8 |
| 20260830211538 | 72 | 62 | 0.9 | 6.1 | 0.00 | 0.00 | 0.00 | 51 | 1006.9 |
| 20260830211047 | 71 | 279 | 1.7 | 3.5 | 0.00 | 0.00 | 0.00 | 52 | 1006.9 |
| 20260830210551 | 70 | 97 | 0.9 | 6.1 | 0.00 | 0.00 | 0.00 | 50 | 1006.9 |
| 20260830210024 | 71 | 89 | 2.6 | 6.1 | 0.00 | 0.00 | 0.00 | 50 | 1007.1 |
| 20260830205532 | 72 | 51 | 2.6 | 6.1 | 0.00 | 0.00 | 0.00 | 52 | 1007.0 |
| 20260830205040 | 71 | 19 | 3.5 | 7.0 | 0.00 | 0.00 | 0.00 | 53 | 1007.1 |
| 20260830204506 | 70 | 355 | 1.7 | 5.2 | 0.00 | 0.00 | 0.00 | 53 | 1007.1 |
| 20260830204010 | 70 | 109 | 2.6 | 5.2 | 0.00 | 0.00 | 0.00 | 54 | 1007.1 |
| 20260830203516 | 68 | 311 | 0.9 | 8.7 | 0.00 | 0.00 | 0.00 | 54 | 1007.3 |
| 20260830203050 | 70 | 9 | 2.6 | 8.7 | 0.00 | 0.00 | 0.00 | 52 | 1007.3 |
| 20260830202558 | 70 | 42 | 0.9 | 7.0 | 0.00 | 0.00 | 0.00 | 54 | 1007.3 |
| 20260830202004 | 70 | 317 | 2.6 | 7.8 | 0.00 | 0.00 | 0.00 | 52 | 1007.3 |
| 20260830201605 | 70 | 11 | 4.3 | 7.8 | 0.00 | 0.00 | 0.00 | 54 | 1007.5 |
| 20260830201048 | 70 | 26 | 2.6 | 7.8 | 0.00 | 0.00 | 0.00 | 53 | 1007.5 |
| 20260830200552 | 70 | 61 | 3.5 | 7.8 | 0.00 | 0.00 | 0.00 | 53 | 1007.6 |
| 20260830200028 | 69 | 186 | 0.9 | 7.0 | 0.00 | 0.00 | 0.00 | 54 | 1007.6 |
| 20260830195537 | 69 | 5 | 2.6 | 7.0 | 0.00 | 0.00 | 0.00 | 54 | 1007.7 |
| 20260830195045 | 69 | 5 | 2.6 | 7.0 | 0.00 | 0.00 | 0.00 | 55 | 1007.6 |
| 20260830194515 | 69 | 251 | 2.6 | 7.0 | 0.00 | 0.00 | 0.00 | 57 | 1007.6 |
| 20260830194025 | 68 | 42 | 0.9 | 7.0 | 0.00 | 0.00 | 0.00 | 56 | 1007.7 |
| 20260830193531 | 69 | 37 | 2.6 | 7.8 | 0.00 | 0.00 | 0.00 | 56 | 1007.7 |
| 20260830193002 | 68 | 26 | 1.7 | 4.3 | 0.00 | 0.00 | 0.00 | 56 | 1007.9 |
| 20260830192508 | 67 | 19 | 0.9 | 7.0 | 0.00 | 0.00 | 0.00 | 56 | 1007.9 |
| 20260830192014 | 68 | 333 | 0.9 | 7.0 | 0.00 | 0.00 | 0.00 | 57 | 1008.0 |
| 20260830191551 | 68 | 287 | 3.5 | 7.0 | 0.00 | 0.00 | 0.00 | 58 | 1008.1 |
| 20260830191058 | 67 | 63 | 1.7 | 5.2 | 0.00 | 0.00 | 0.00 | 56 | 1008.1 |
| 20260830190502 | 68 | 55 | 0.9 | 6.1 | 0.00 | 0.00 | 0.00 | 57 | 1008.1 |
| 20260830190039 | 69 | 28 | 2.6 | 7.0 | 0.00 | 0.00 | 0.00 | 55 | 1008.3 |
| 20260830185544 | 67 | 46 | 0.9 | 3.5 | 0.00 | 0.00 | 0.00 | 59 | 1008.3 |
| 20260830185053 | 66 | 124 | 1.7 | 5.2 | 0.00 | 0.00 | 0.00 | 60 | 1008.3 |
| 20260830184532 | 65 | 97 | 1.7 | 5.2 | 0.00 | 0.00 | 0.00 | 60 | 1008.4 |
| 20260830184039 | 65 | 50 | 1.7 | 7.0 | 0.00 | 0.00 | 0.00 | 58 | 1008.5 |
| 20260830183545 | 67 | 55 | 4.3 | 7.0 | 0.00 | 0.00 | 0.00 | 58 | 1008.5 |
| 20260830183010 | 66 | 313 | 2.6 | 5.2 | 0.00 | 0.00 | 0.00 | 59 | 1008.4 |
| 20260830182524 | 65 | 39 | 1.7 | 7.8 | 0.00 | 0.00 | 0.00 | 60 | 1008.4 |
| 20260830182032 | 66 | 53 | 2.6 | 7.8 | 0.00 | 0.00 | 0.00 | 59 | 1008.5 |
| 20260830181510 | 65 | 32 | 2.6 | 8.7 | 0.00 | 0.00 | 0.00 | 60 | 1008.4 |
| 20260830181023 | 66 | 355 | 2.6 | 8.7 | 0.00 | 0.00 | 0.00 | 59 | 1008.5 |
| 20260830180531 | 67 | 17 | 2.6 | 7.0 | 0.00 | 0.00 | 0.00 | 59 | 1008.5 |
| 20260830180100 | 67 | 100 | 1.7 | 5.2 | 0.00 | 0.00 | 0.00 | 58 | 1008.4 |
| 20260830175600 | 65 | 295 | 0.9 | 4.3 | 0.00 | 0.00 | 0.00 | 61 | 1008.4 |
| 20260830175108 | 64 | 51 | 0.0 | 8.7 | 0.00 | 0.00 | 0.00 | 62 | 1008.5 |
| 20260830174539 | 65 | 32 | 2.6 | 8.7 | 0.00 | 0.00 | 0.00 | 63 | 1008.4 |
| 20260830174045 | 65 | 46 | 1.7 | 5.2 | 0.00 | 0.00 | 0.00 | 62 | 1008.4 |
| 20260830173549 | 64 | 78 | 0.9 | 5.2 | 0.00 | 0.00 | 0.00 | 64 | 1008.4 |
| 20260830173025 | 63 | 76 | 1.7 | 5.2 | 0.00 | 0.00 | 0.00 | 66 | 1008.4 |
| 20260830172532 | 64 | 309 | 1.7 | 5.2 | 0.00 | 0.00 | 0.00 | 66 | 1008.4 |
| 20260830172039 | 64 | 19 | 2.6 | 6.1 | 0.00 | 0.00 | 0.00 | 65 | 1008.4 |
| 20260830171502 | 63 | 69 | 2.6 | 4.3 | 0.00 | 0.00 | 0.00 | 65 | 1008.5 |
| 20260830171018 | 63 | 40 | 1.7 | 4.3 | 0.00 | 0.00 | 0.00 | 68 | 1008.5 |
| 20260830170524 | 63 | 304 | 1.7 | 5.2 | 0.00 | 0.00 | 0.00 | 70 | 1008.6 |
| 20260830170050 | 62 | 30 | 3.5 | 5.2 | 0.00 | 0.00 | 0.00 | 71 | 1008.6 |
| 20260830165557 | 62 | 76 | 0.9 | 6.1 | 0.00 | 0.00 | 0.00 | 72 | 1008.5 |
| 20260830165103 | 61 | 287 | 3.5 | 5.2 | 0.00 | 0.00 | 0.00 | 73 | 1008.5 |
| 20260830164538 | 61 | 19 | 1.7 | 2.6 | 0.00 | 0.00 | 0.00 | 74 | 1008.5 |
| 20260830164042 | 61 | 55 | 0.9 | 2.6 | 0.00 | 0.00 | 0.00 | 75 | 1008.4 |
| 20260830163548 | 60 | 158 | 0.0 | 2.6 | 0.00 | 0.00 | 0.00 | 75 | 1008.4 |
| 20260830163027 | 60 | 38 | 1.7 | 2.6 | 0.00 | 0.00 | 0.00 | 74 | 1008.5 |
| 20260830162533 | 60 | 12 | 0.9 | 2.6 | 0.00 | 0.00 | 0.00 | 74 | 1008.6 |
| 20260830162033 | 59 | 10 | 0.0 | 2.6 | 0.00 | 0.00 | 0.00 | 75 | 1008.6 |
| 20260830161604 | 59 | 19 | 0.9 | 3.5 | 0.00 | 0.00 | 0.00 | 76 | 1008.7 |
| 20260830161006 | 59 | 38 | 0.9 | 3.5 | 0.00 | 0.00 | 0.00 | 77 | 1008.7 |
| 20260830160524 | 59 | 45 | 1.7 | 3.5 | 0.00 | 0.00 | 0.00 | 77 | 1008.8 |
| 20260830160050 | 58 | 51 | 0.0 | 1.7 | 0.00 | 0.00 | 0.00 | 77 | 1008.8 |
| 20260830155556 | 58 | 317 | 0.0 | 0.0 | 0.00 | 0.00 | 0.00 | 78 | 1008.8 |
| 20260830155103 | 57 | 317 | 0.0 | 0.0 | 0.00 | 0.00 | 0.00 | 79 | 1008.7 |
| 20260830154536 | 57 | 317 | 0.0 | 0.0 | 0.00 | 0.00 | 0.00 | 80 | 1008.7 |
| 20260830154044 | 56 | 317 | 0.0 | 0.0 | 0.00 | 0.00 | 0.00 | 81 | 1008.7 |
| 20260830153539 | 56 | 283 | 0.0 | 0.0 | 0.00 | 0.00 | 0.00 | 82 | 1008.7 |
| 20260830153032 | 55 | 283 | 0.0 | 0.0 | 0.00 | 0.00 | 0.00 | 83 | 1008.7 |
| 20260830152525 | 54 | 283 | 0.0 | 0.0 | 0.00 | 0.00 | 0.00 | 85 | 1008.7 |
| 20260830152012 | 53 | 283 | 0.0 | 0.0 | 0.00 | 0.00 | 0.00 | 86 | 1008.8 |
| 20260830151555 | 53 | 283 | 0.0 | 0.0 | 0.00 | 0.00 | 0.00 | 86 | 1008.9 |
| 20260830151056 | 52 | 283 | 0.0 | 0.0 | 0.00 | 0.00 | 0.00 | 86 | 1008.9 |
| 20260830150603 | 52 | 283 | 0.0 | 0.0 | 0.00 | 0.00 | 0.00 | 87 | 1008.9 |
| 20260830150030 | 51 | 283 | 0.0 | 0.0 | 0.00 | 0.00 | 0.00 | 87 | 1009.0 |
| 20260830145540 | 51 | 283 | 0.0 | 0.0 | 0.00 | 0.00 | 0.00 | 87 | 1008.9 |
| 20260830145043 | 51 | 283 | 0.0 | 0.0 | 0.00 | 0.00 | 0.00 | 88 | 1009.0 |
| 20260830144504 | 50 | 283 | 0.0 | 0.0 | 0.00 | 0.00 | 0.00 | 87 | 1009.0 |
| 20260830144019 | 50 | 283 | 0.0 | 0.0 | 0.00 | 0.00 | 0.00 | 87 | 1009.0 |
| 20260830143527 | 50 | 283 | 0.0 | 0.0 | 0.00 | 0.00 | 0.00 | 87 | 1008.9 |
| 20260830143102 | 50 | 249 | 0.0 | 0.0 | 0.00 | 0.00 | 0.00 | 87 | 1008.8 |
| 20260830142556 | 50 | 249 | 0.0 | 0.0 | 0.00 | 0.00 | 0.00 | 87 | 1008.7 |
| 20260830142004 | 50 | 249 | 0.0 | 0.0 | 0.00 | 0.00 | 0.00 | 87 | 1008.7 |
| 20260830141542 | 50 | 249 | 0.0 | 0.0 | 0.00 | 0.00 | 0.00 | 87 | 1008.7 |
| 20260830141045 | 50 | 249 | 0.0 | 0.0 | 0.00 | 0.00 | 0.00 | 87 | 1008.7 |
| 20260830140554 | 50 | 249 | 0.0 | 0.0 | 0.00 | 0.00 | 0.00 | 87 | 1008.7 |
| 20260830140011 | 50 | 249 | 0.0 | 0.0 | 0.00 | 0.00 | 0.00 | 87 | 1008.7 |
| 20260830135518 | 50 | 249 | 0.0 | 0.0 | 0.00 | 0.00 | 0.00 | 87 | 1008.7 |
| 20260830135016 | 50 | 249 | 0.0 | 0.0 | 0.00 | 0.00 | 0.00 | 87 | 1008.8 |
| 20260830134554 | 50 | 249 | 0.0 | 0.9 | 0.00 | 0.00 | 0.00 | 86 | 1008.8 |
| 20260830134057 | 50 | 249 | 0.0 | 0.9 | 0.00 | 0.00 | 0.00 | 86 | 1008.6 |
| 20260830133556 | 50 | 249 | 0.0 | 0.9 | 0.00 | 0.00 | 0.00 | 86 | 1008.8 |
| 20260830133039 | 50 | 249 | 0.0 | 0.9 | 0.00 | 0.00 | 0.00 | 86 | 1008.6 |
| 20260830132538 | 50 | 249 | 0.0 | 0.9 | 0.00 | 0.00 | 0.00 | 86 | 1008.6 |
| 20260830132040 | 50 | 249 | 0.0 | 0.9 | 0.00 | 0.00 | 0.00 | 86 | 1008.6 |
| 20260830131507 | 50 | 249 | 0.0 | 0.0 | 0.00 | 0.00 | 0.00 | 85 | 1008.6 |
| 20260830131026 | 50 | 249 | 0.0 | 0.9 | 0.00 | 0.00 | 0.00 | 85 | 1008.6 |
| 20260830130533 | 50 | 249 | 0.0 | 0.9 | 0.00 | 0.00 | 0.00 | 86 | 1008.6 |
| 20260830130056 | 50 | 249 | 0.0 | 1.7 | 0.00 | 0.06 | 0.00 | 86 | 1008.6 |
| 20260830125502 | 50 | 249 | 0.0 | 1.7 | 0.00 | 0.06 | 0.00 | 86 | 1008.5 |
| 20260830125007 | 51 | 249 | 0.0 | 0.9 | 0.00 | 0.06 | 0.00 | 85 | 1008.5 |
| 20260830124555 | 51 | 249 | 0.0 | 0.0 | 0.00 | 0.06 | 0.00 | 86 | 1008.5 |
| 20260830124056 | 51 | 249 | 0.0 | 1.7 | 0.00 | 0.06 | 0.00 | 86 | 1008.4 |
| 20260830123604 | 51 | 249 | 0.0 | 1.7 | 0.00 | 0.06 | 0.00 | 86 | 1008.4 |
| 20260830123039 | 51 | 249 | 0.0 | 0.9 | 0.00 | 0.06 | 0.00 | 86 | 1008.4 |
| 20260830122543 | 51 | 249 | 0.0 | 1.7 | 0.00 | 0.06 | 0.00 | 86 | 1008.3 |
| 20260830122048 | 51 | 249 | 0.0 | 1.7 | 0.00 | 0.06 | 0.00 | 86 | 1008.2 |
| 20260830121527 | 51 | 249 | 0.9 | 1.7 | 0.00 | 0.06 | 0.00 | 86 | 1008.2 |
| 20260830121019 | 51 | 249 | 0.9 | 1.7 | 0.00 | 0.06 | 0.00 | 86 | 1008.2 |
| 20260830120536 | 51 | 249 | 0.9 | 1.7 | 0.00 | 0.06 | 0.00 | 86 | 1008.2 |
| 20260830120004 | 51 | 249 | 0.9 | 1.7 | 0.00 | 0.06 | 0.00 | 86 | 1008.2 |
| 20260830115507 | 51 | 249 | 0.9 | 1.7 | 0.00 | 0.06 | 0.00 | 86 | 1008.2 |
| 20260830115012 | 51 | 249 | 0.9 | 1.7 | 0.00 | 0.06 | 0.00 | 85 | 1008.3 |
| 20260830114557 | 52 | 249 | 0.9 | 1.7 | 0.00 | 0.06 | 0.00 | 85 | 1008.3 |
| 20260830114057 | 52 | 249 | 0.0 | 1.7 | 0.00 | 0.06 | 0.00 | 85 | 1008.2 |
| 20260830113555 | 52 | 249 | 0.0 | 1.7 | 0.00 | 0.06 | 0.00 | 85 | 1008.3 |
| 20260830113032 | 52 | 249 | 0.9 | 1.7 | 0.00 | 0.06 | 0.00 | 85 | 1008.3 |
| 20260830112537 | 52 | 249 | 0.9 | 1.7 | 0.00 | 0.06 | 0.00 | 85 | 1008.2 |
| 20260830112039 | 52 | 249 | 0.0 | 1.7 | 0.00 | 0.06 | 0.00 | 85 | 1008.3 |
| 20260830111505 | 52 | 249 | 0.9 | 1.7 | 0.00 | 0.06 | 0.00 | 85 | 1008.2 |
| 20260830111021 | 52 | 249 | 0.9 | 1.7 | 0.00 | 0.06 | 0.00 | 85 | 1008.2 |
| 20260830110527 | 52 | 249 | 0.9 | 2.6 | 0.00 | 0.06 | 0.00 | 85 | 1008.1 |
| 20260830110048 | 52 | 249 | 0.9 | 2.6 | 0.00 | 0.06 | 0.00 | 85 | 1008.3 |
| 20260830105555 | 52 | 249 | 0.9 | 2.6 | 0.00 | 0.06 | 0.00 | 85 | 1008.3 |
| 20260830105101 | 52 | 249 | 0.9 | 2.6 | 0.00 | 0.06 | 0.00 | 85 | 1008.2 |
| 20260830104520 | 52 | 249 | 0.9 | 2.6 | 0.00 | 0.06 | 0.00 | 85 | 1008.2 |
| 20260830104027 | 52 | 249 | 0.9 | 2.6 | 0.00 | 0.06 | 0.00 | 85 | 1008.3 |
| 20260830103533 | 52 | 249 | 0.0 | 3.5 | 0.00 | 0.06 | 0.00 | 85 | 1008.2 |
| 20260830103102 | 52 | 249 | 0.9 | 3.5 | 0.00 | 0.06 | 0.00 | 85 | 1008.2 |
| 20260830102504 | 52 | 225 | 1.7 | 3.5 | 0.00 | 0.06 | 0.00 | 85 | 1008.1 |
| 20260830102014 | 52 | 230 | 1.7 | 4.3 | 0.00 | 0.06 | 0.00 | 85 | 1008.1 |
| 20260830101551 | 52 | 229 | 1.7 | 4.3 | 0.00 | 0.06 | 0.00 | 84 | 1008.2 |
| 20260830101057 | 52 | 236 | 1.7 | 3.5 | 0.00 | 0.06 | 0.00 | 84 | 1008.2 |
| 20260830100604 | 52 | 241 | 0.9 | 3.5 | 0.00 | 0.06 | 0.00 | 84 | 1008.1 |
| 20260830100039 | 52 | 237 | 0.9 | 2.6 | 0.00 | 0.06 | 0.00 | 84 | 1008.2 |
| 20260830095539 | 52 | 279 | 0.9 | 2.6 | 0.00 | 0.06 | 0.00 | 84 | 1008.2 |
| 20260830095049 | 52 | 245 | 0.9 | 2.6 | 0.00 | 0.06 | 0.00 | 84 | 1008.3 |
| 20260830094552 | 52 | 245 | 0.9 | 2.6 | 0.00 | 0.06 | 0.00 | 83 | 1008.2 |
| 20260830094031 | 52 | 244 | 0.9 | 2.6 | 0.00 | 0.06 | 0.00 | 83 | 1008.3 |
| 20260830093532 | 52 | 244 | 1.7 | 2.6 | 0.00 | 0.06 | 0.00 | 84 | 1008.1 |
| 20260830093047 | 53 | 257 | 0.9 | 3.5 | 0.00 | 0.06 | 0.00 | 83 | 1008.1 |
| 20260830092552 | 52 | 265 | 0.0 | 4.3 | 0.00 | 0.06 | 0.00 | 83 | 1008.2 |
| 20260830092053 | 53 | 260 | 0.9 | 4.3 | 0.00 | 0.06 | 0.00 | 83 | 1008.1 |
| 20260830091519 | 53 | 235 | 1.7 | 3.5 | 0.00 | 0.06 | 0.00 | 83 | 1008.1 |
| 20260830091036 | 53 | 238 | 0.9 | 3.5 | 0.00 | 0.06 | 0.00 | 83 | 1008.2 |
| 20260830090541 | 53 | 233 | 1.7 | 2.6 | 0.00 | 0.06 | 0.00 | 82 | 1008.2 |
| 20260830090019 | 53 | 233 | 0.0 | 2.6 | 0.00 | 0.06 | 0.00 | 82 | 1008.3 |
| 20260830085530 | 53 | 287 | 0.9 | 2.6 | 0.00 | 0.06 | 0.00 | 82 | 1008.2 |
| 20260830085033 | 53 | 288 | 0.0 | 2.6 | 0.00 | 0.06 | 0.00 | 82 | 1008.2 |
| 20260830084549 | 53 | 288 | 0.9 | 2.6 | 0.00 | 0.06 | 0.00 | 82 | 1008.2 |
| 20260830084057 | 53 | 286 | 0.9 | 2.6 | 0.00 | 0.06 | 0.00 | 82 | 1008.3 |
| 20260830083505 | 53 | 214 | 0.9 | 3.5 | 0.00 | 0.06 | 0.00 | 82 | 1008.3 |
| 20260830083036 | 53 | 213 | 0.9 | 3.5 | 0.00 | 0.06 | 0.00 | 82 | 1008.3 |
| 20260830082545 | 53 | 252 | 0.9 | 2.6 | 0.00 | 0.06 | 0.00 | 82 | 1008.4 |
| 20260830082051 | 53 | 242 | 0.9 | 2.6 | 0.00 | 0.06 | 0.00 | 82 | 1008.4 |
| 20260830081525 | 53 | 240 | 0.9 | 2.6 | 0.00 | 0.06 | 0.00 | 82 | 1008.3 |
| 20260830081015 | 53 | 200 | 1.7 | 2.6 | 0.00 | 0.06 | 0.00 | 82 | 1008.3 |
| 20260830080529 | 53 | 213 | 1.7 | 4.3 | 0.00 | 0.06 | 0.00 | 81 | 1008.3 |
| 20260830080100 | 53 | 275 | 1.7 | 4.3 | 0.00 | 0.06 | 0.00 | 81 | 1008.4 |
| 20260830075557 | 53 | 281 | 1.7 | 2.6 | 0.00 | 0.06 | 0.00 | 81 | 1008.4 |
| 20260830075004 | 53 | 282 | 0.9 | 2.6 | 0.00 | 0.06 | 0.00 | 80 | 1008.4 |
| 20260830074539 | 53 | 221 | 0.9 | 2.6 | 0.00 | 0.06 | 0.00 | 80 | 1008.4 |
| 20260830074041 | 53 | 221 | 0.9 | 2.6 | 0.00 | 0.06 | 0.00 | 80 | 1008.3 |